Aérodrome :
LOGIN :

S'inscrire | Disclaimer

   EN    FR    IT 

 










Légende :    VFR   VFR Marginal   IFR   IFR Intensif   IFR Très Intensif
Visi : 
Plafond : 
>= 8 km
>= 3000ft
5 à 8 km
1000 à 3000 ft
1500m à 5 km
500 à 1000 ft
800 à 1500m
200 à 500 ft
< 800m
< 200 ft
Symboles :   Orages  Brouillard  Fortes neiges  Fortes précipitations  Vent > 20 kt
SIGMETs :   Divers  Orages  Givrage  Turbulence  Onde Orograph.  Cendres Volcan.







- Altitude de l'aérodrome : 74 ft
- Code IATA : NDZ


ETMN - Cuxhaven Nordholz Sea AB

DERNIER METAR :
  • 192250Z 26011KT 8000 BKN013 06/04 Q1017 GRN FCST CANCEL

METARs EXPIRÉS :
  • 192220Z 26014KT 8000 BKN011 BKN035 06/04 Q1016 GRN BLU TEMPO GRN
  • 192120Z 26013KT 8000 BKN009 BKN040 06/05 Q1016 GRN BLU TEMPO GRN
  • 192020Z 27014KT 8000 FEW015 SCT030 BKN045 06/04 Q1016 BLU BLU TEMPO GRN

TAF AMD TAF ETMN
Valide du 19 à 21h jusqu'au 20 à 03h UTC


192124Z 1921/2003 24015KT 9999 NSW SCT015 BKN040
TEMPO 1921/2003 24010KT 6000 BR BKN010 BKN040 BKN240 CANCEL 2300
Pas de NOTAMs connus pour ce terrain.



MET'MAP, la Météo Aéronautique d'un coup d'oeil ! - Copyright ORBIFLY Décembre 2007 - Disclaimer

ORBIFLY MET'MAP TEAM :

Programmation & Développement : Alexandra Zaïnal
Conception & Développement : Baudouin d'Aumeries
Co-Programmation & Développement : Marc-Olivier Méhu
Soutien technique & logistique : Manuel Goepfert

Contact : metmap@orbifly.com




SOURCES & CREDITS :

   NOAA